CSCL Long Beach — VRCZ7 — position and weather

sailwx.info

Track history (hours):
 
Tides and Currents Weather Stations Pressure Air Temp Water Temp Dewpoint Dewpoint Depression Visibility Wind Speed Wind Dir Waves Ship Positions

CSCL Long Beach

Last reported at 2014-Aug-31 23:32 UTC. Time now 2014-Sep-01 13:58 UTC.
Position N 23°26' E 117°55'.

Length 336.7 m; beam 45.6 m; draft 15 m.

Type: Cargo ship. MMSI: 477883900.

Date/timePositionNaut miles runAvg speedWind from/ knotsBaromVisibWave heightAir tempDewpointWater temp
2014-Aug-31 23:32N 23°26' E 117°55'1413.0
2014-Aug-31 22:29N 23°35' E 118°06'1312.8
2014-Aug-31 21:30N 23°43' E 118°17'1212.8
2014-Aug-31 20:33N 23°48' E 118°29'1212.3
2014-Aug-31 19:32N 23°56' E 118°39'1312.2
2014-Aug-31 18:30N 24°06' E 118°47'1212.2
2014-Aug-31 17:33N 24°12' E 118°58'1211.6
2014-Aug-31 16:32N 24°21' E 119°06'1111.4
2014-Aug-31 15:33N 24°30' E 119°13'1111.4
2014-Aug-31 14:33N 24°38' E 119°22'1511.2
2014-Aug-31 13:14N 24°49' E 119°33'811.4
2014-Aug-31 12:33N 24°54' E 119°40'2311.2
2014-Aug-31 10:32N 25°09' E 119°58'29415.9
2014-Aug-30 16:04N 29°31' E 122°30'916.9
2014-Aug-30 15:33N 29°39' E 122°26'1312.8
2014-Aug-30 14:33N 29°48' E 122°15'1212.4
2014-Aug-30 13:33N 29°55' E 122°04'7 6.4
2014-Aug-30 12:29N 29°56' E 121°56'0 0.0
2014-Aug-30 11:29N 29°56' E 121°56'0 0.0
2014-Aug-30 10:29N 29°56' E 121°56'0 0.0
2014-Aug-30 09:29N 29°56' E 121°56'0 0.0
2014-Aug-30 08:29N 29°56' E 121°56'0 0.0
2014-Aug-30 07:29N 29°56' E 121°56'0 0.0
2014-Aug-30 06:29N 29°56' E 121°56'0 0.0
2014-Aug-30 05:29N 29°56' E 121°56'0 0.0
2014-Aug-30 04:29N 29°56' E 121°56'0 0.0
2014-Aug-30 03:29N 29°56' E 121°56'0 0.0
2014-Aug-30 02:29N 29°56' E 121°56'0 0.0
2014-Aug-30 01:23N 29°56' E 121°56'0 0.0
2014-Aug-30 00:29N 29°56' E 121°56'0 0.0
2014-Aug-29 23:29N 29°56' E 121°56'0 0.0
2014-Aug-29 22:29N 29°56' E 121°56'0 0.0
2014-Aug-29 21:29N 29°56' E 121°56'0 0.0
2014-Aug-29 20:29N 29°56' E 121°56'0 0.0
2014-Aug-29 19:29N 29°56' E 121°56'0 0.0
2014-Aug-29 18:23N 29°56' E 121°56'0 0.0
2014-Aug-29 17:32N 29°56' E 121°56'0 0.0
2014-Aug-29 16:29N 29°56' E 121°56'0 0.0
2014-Aug-29 15:32N 29°56' E 121°56'0 0.0
2014-Aug-29 14:32N 29°56' E 121°56'0 0.0
2014-Aug-29 13:32N 29°56' E 121°56'0 0.0
2014-Aug-29 12:29N 29°56' E 121°56'0 0.0
2014-Aug-29 11:29N 29°56' E 121°56'0 0.0
2014-Aug-29 10:32N 29°56' E 121°56'0 0.0
2014-Aug-29 09:32N 29°56' E 121°56'0 0.0
2014-Aug-29 08:29N 29°56' E 121°56'0 0.0
2014-Aug-29 07:32N 29°56' E 121°56'0 0.0
2014-Aug-29 06:23N 29°56' E 121°56'0 0.4
2014-Aug-29 05:33N 29°57' E 121°56'8 8.2
2014-Aug-29 04:34N 29°56' E 122°05'1212.1
2014-Aug-29 03:33N 29°47' E 122°16'8 8.2
2014-Aug-29 02:33N 29°43' E 122°24'5 4.7
2014-Aug-29 01:34N 29°40' E 122°28'1 1.0
2014-Aug-29 00:33N 29°39' E 122°28'0 0.1
2014-Aug-28 23:33N 29°39' E 122°28'0 0.2
2014-Aug-28 22:33N 29°39' E 122°28'0 0.1
2014-Aug-28 21:33N 29°39' E 122°28'0 0.1
2014-Aug-28 20:33N 29°39' E 122°28'0 0.0
2014-Aug-28 19:33N 29°39' E 122°28'0 0.1
2014-Aug-28 18:33N 29°39' E 122°28'0 0.1
2014-Aug-28 17:33N 29°39' E 122°28'0 0.1
2014-Aug-28 16:33N 29°40' E 122°28'0 0.2
2014-Aug-28 15:33N 29°40' E 122°28'0 0.1
2014-Aug-28 14:33N 29°40' E 122°28'0 0.1
2014-Aug-28 13:27N 29°40' E 122°28'0 0.1
2014-Aug-28 12:27N 29°39' E 122°28'0 0.2
2014-Aug-28 11:33N 29°39' E 122°28'0 0.1
2014-Aug-28 10:33N 29°39' E 122°28'0 0.0
2014-Aug-28 09:33N 29°39' E 122°28'0 0.1
2014-Aug-28 08:32N 29°39' E 122°28'0 0.0
2014-Aug-28 07:25N 29°39' E 122°28'0 0.1
2014-Aug-28 06:19N 29°39' E 122°28'0 0.1
2014-Aug-28 05:32N 29°39' E 122°28'0 0.1
2014-Aug-28 04:32N 29°40' E 122°28'0 0.1
2014-Aug-28 03:32N 29°40' E 122°28'1 1.2
2014-Aug-28 02:33N 29°40' E 122°29'1010.2
2014-Aug-28 01:33N 29°42' E 122°41'1212.0
2014-Aug-28 00:33N 29°52' E 122°50'1712.8
2014-Aug-27 23:16N 30°05' E 123°02'1013.0
2014-Aug-27 22:31N 30°14' E 123°02'1313.4
2014-Aug-27 21:33N 30°23' E 122°52'1514.5
2014-Aug-27 20:33N 30°29' E 122°36'1716.7
2014-Aug-27 19:33N 30°33' E 122°18'11 0.4
2014-Aug-26 17:16N 30°36' E 122°05'6 8.9
2014-Aug-26 16:32N 30°34' E 122°12'9 9.1
2014-Aug-26 15:33N 30°33' E 122°23'8 7.9
2014-Aug-26 14:33N 30°31' E 122°32'1312.6
2014-Aug-26 13:33N 30°28' E 122°46'2 1.1
2014-Aug-26 11:32N 30°26' E 122°46'0 0.1
2014-Aug-26 09:32N 30°25' E 122°46'0 0.1
2014-Aug-26 08:32N 30°25' E 122°47'0 0.0
2014-Aug-26 07:32N 30°25' E 122°47'0 0.1
2014-Aug-26 06:32N 30°25' E 122°47'0 0.1
2014-Aug-26 05:32N 30°25' E 122°47'0 0.2
2014-Aug-26 04:26N 30°26' E 122°46'0 0.1
2014-Aug-26 03:32N 30°26' E 122°46'1 1.0
2014-Aug-26 02:33N 30°26' E 122°47'1111.0
2014-Aug-26 01:34N 30°32' E 122°58'2019.0
2014-Aug-26 00:31N 30°46' E 123°15'1814.0
2014-Aug-25 23:13N 31°03' E 123°10'32111.5
2014-Aug-24 19:26N 35°60' E 120°44'1011.3
2014-Aug-24 18:33N 35°59' E 120°32'1211.7
2014-Aug-24 17:33N 36°02' E 120°18'5 1.4
2014-Aug-24 14:21N 35°60' E 120°13'0 0.0
2014-Aug-24 13:27N 35°60' E 120°13'0 0.0
2014-Aug-24 11:09N 35°60' E 120°13'0 0.0
2014-Aug-24 01:33N 35°60' E 120°13'  
Track history (hours):
 
Tides and Currents Weather Stations Pressure Air Temp Water Temp Dewpoint Dewpoint Depression Visibility Wind Speed Wind Dir Waves Ship Positions

CSCL Long Beach

Last reported at 2014-Aug-31 23:32 UTC. Time now 2014-Sep-01 13:58 UTC.
Position N 23°26' E 117°55'.

Length 336.7 m; beam 45.6 m; draft 15 m.

Type: Cargo ship. MMSI: 477883900.

Date/timePositionNaut miles runAvg speedWind from/ knotsBaromVisibWave heightAir tempDewpointWater temp
2014-Aug-31 23:32N 23°26' E 117°55'1413.0
2014-Aug-31 22:29N 23°35' E 118°06'1312.8
2014-Aug-31 21:30N 23°43' E 118°17'1212.8
2014-Aug-31 20:33N 23°48' E 118°29'1212.3
2014-Aug-31 19:32N 23°56' E 118°39'1312.2
2014-Aug-31 18:30N 24°06' E 118°47'1212.2
2014-Aug-31 17:33N 24°12' E 118°58'1211.6
2014-Aug-31 16:32N 24°21' E 119°06'1111.4
2014-Aug-31 15:33N 24°30' E 119°13'1111.4
2014-Aug-31 14:33N 24°38' E 119°22'1511.2
2014-Aug-31 13:14N 24°49' E 119°33'811.4
2014-Aug-31 12:33N 24°54' E 119°40'2311.2
2014-Aug-31 10:32N 25°09' E 119°58'29415.9
2014-Aug-30 16:04N 29°31' E 122°30'916.9
2014-Aug-30 15:33N 29°39' E 122°26'1312.8
2014-Aug-30 14:33N 29°48' E 122°15'1212.4
2014-Aug-30 13:33N 29°55' E 122°04'7 6.4
2014-Aug-30 12:29N 29°56' E 121°56'0 0.0
2014-Aug-30 11:29N 29°56' E 121°56'0 0.0
2014-Aug-30 10:29N 29°56' E 121°56'0 0.0
2014-Aug-30 09:29N 29°56' E 121°56'0 0.0
2014-Aug-30 08:29N 29°56' E 121°56'0 0.0
2014-Aug-30 07:29N 29°56' E 121°56'0 0.0
2014-Aug-30 06:29N 29°56' E 121°56'0 0.0
2014-Aug-30 05:29N 29°56' E 121°56'0 0.0
2014-Aug-30 04:29N 29°56' E 121°56'0 0.0
2014-Aug-30 03:29N 29°56' E 121°56'0 0.0
2014-Aug-30 02:29N 29°56' E 121°56'0 0.0
2014-Aug-30 01:23N 29°56' E 121°56'0 0.0
2014-Aug-30 00:29N 29°56' E 121°56'0 0.0
2014-Aug-29 23:29N 29°56' E 121°56'0 0.0
2014-Aug-29 22:29N 29°56' E 121°56'0 0.0
2014-Aug-29 21:29N 29°56' E 121°56'0 0.0
2014-Aug-29 20:29N 29°56' E 121°56'0 0.0
2014-Aug-29 19:29N 29°56' E 121°56'0 0.0
2014-Aug-29 18:23N 29°56' E 121°56'0 0.0
2014-Aug-29 17:32N 29°56' E 121°56'0 0.0
2014-Aug-29 16:29N 29°56' E 121°56'0 0.0
2014-Aug-29 15:32N 29°56' E 121°56'0 0.0
2014-Aug-29 14:32N 29°56' E 121°56'0 0.0
2014-Aug-29 13:32N 29°56' E 121°56'0 0.0
2014-Aug-29 12:29N 29°56' E 121°56'0 0.0
2014-Aug-29 11:29N 29°56' E 121°56'0 0.0
2014-Aug-29 10:32N 29°56' E 121°56'0 0.0
2014-Aug-29 09:32N 29°56' E 121°56'0 0.0
2014-Aug-29 08:29N 29°56' E 121°56'0 0.0
2014-Aug-29 07:32N 29°56' E 121°56'0 0.0
2014-Aug-29 06:23N 29°56' E 121°56'0 0.4
2014-Aug-29 05:33N 29°57' E 121°56'8 8.2
2014-Aug-29 04:34N 29°56' E 122°05'1212.1
2014-Aug-29 03:33N 29°47' E 122°16'8 8.2
2014-Aug-29 02:33N 29°43' E 122°24'5 4.7
2014-Aug-29 01:34N 29°40' E 122°28'1 1.0
2014-Aug-29 00:33N 29°39' E 122°28'0 0.1
2014-Aug-28 23:33N 29°39' E 122°28'0 0.2
2014-Aug-28 22:33N 29°39' E 122°28'0 0.1
2014-Aug-28 21:33N 29°39' E 122°28'0 0.1
2014-Aug-28 20:33N 29°39' E 122°28'0 0.0
2014-Aug-28 19:33N 29°39' E 122°28'0 0.1
2014-Aug-28 18:33N 29°39' E 122°28'0 0.1
2014-Aug-28 17:33N 29°39' E 122°28'0 0.1
2014-Aug-28 16:33N 29°40' E 122°28'0 0.2
2014-Aug-28 15:33N 29°40' E 122°28'0 0.1
2014-Aug-28 14:33N 29°40' E 122°28'0 0.1
2014-Aug-28 13:27N 29°40' E 122°28'0 0.1
2014-Aug-28 12:27N 29°39' E 122°28'0 0.2
2014-Aug-28 11:33N 29°39' E 122°28'0 0.1
2014-Aug-28 10:33N 29°39' E 122°28'0 0.0
2014-Aug-28 09:33N 29°39' E 122°28'0 0.1
2014-Aug-28 08:32N 29°39' E 122°28'0 0.0
2014-Aug-28 07:25N 29°39' E 122°28'0 0.1
2014-Aug-28 06:19N 29°39' E 122°28'0 0.1
2014-Aug-28 05:32N 29°39' E 122°28'0 0.1
2014-Aug-28 04:32N 29°40' E 122°28'0 0.1
2014-Aug-28 03:32N 29°40' E 122°28'1 1.2
2014-Aug-28 02:33N 29°40' E 122°29'1010.2
2014-Aug-28 01:33N 29°42' E 122°41'1212.0
2014-Aug-28 00:33N 29°52' E 122°50'1712.8
2014-Aug-27 23:16N 30°05' E 123°02'1013.0
2014-Aug-27 22:31N 30°14' E 123°02'1313.4
2014-Aug-27 21:33N 30°23' E 122°52'1514.5
2014-Aug-27 20:33N 30°29' E 122°36'1716.7
2014-Aug-27 19:33N 30°33' E 122°18'11 0.4
2014-Aug-26 17:16N 30°36' E 122°05'6 8.9
2014-Aug-26 16:32N 30°34' E 122°12'9 9.1
2014-Aug-26 15:33N 30°33' E 122°23'8 7.9
2014-Aug-26 14:33N 30°31' E 122°32'1312.6
2014-Aug-26 13:33N 30°28' E 122°46'2 1.1
2014-Aug-26 11:32N 30°26' E 122°46'0 0.1
2014-Aug-26 09:32N 30°25' E 122°46'0 0.1
2014-Aug-26 08:32N 30°25' E 122°47'0 0.0
2014-Aug-26 07:32N 30°25' E 122°47'0 0.1
2014-Aug-26 06:32N 30°25' E 122°47'0 0.1
2014-Aug-26 05:32N 30°25' E 122°47'0 0.2
2014-Aug-26 04:26N 30°26' E 122°46'0 0.1
2014-Aug-26 03:32N 30°26' E 122°46'1 1.0
2014-Aug-26 02:33N 30°26' E 122°47'1111.0
2014-Aug-26 01:34N 30°32' E 122°58'2019.0
2014-Aug-26 00:31N 30°46' E 123°15'1814.0
2014-Aug-25 23:13N 31°03' E 123°10'32111.5
2014-Aug-24 19:26N 35°60' E 120°44'1011.3
2014-Aug-24 18:33N 35°59' E 120°32'1211.7
2014-Aug-24 17:33N 36°02' E 120°18'5 1.4
2014-Aug-24 14:21N 35°60' E 120°13'0 0.0
2014-Aug-24 13:27N 35°60' E 120°13'0 0.0
2014-Aug-24 11:09N 35°60' E 120°13'0 0.0
2014-Aug-24 01:33N 35°60' E 120°13'  

Dump ship's entire track history